{"data":{"norad_id":68603,"intl_designator":"2026-073B","name":"STARLINK-37189","alt_names":[],"object_type":"PAYLOAD","status":"ACTIVE","operator":null,"country":"US","launch_date":"2026-04-07","launch_site_code":"AFWTR","launch_vehicle":null,"mission":null,"orbit_class":"UNKNOWN","rcs_meters":null,"size_class":null,"mass_kg":null,"dimensions":null,"purposes":["comms"],"wikipedia_slug":null,"has_3d_model":false,"image_url":null,"decayed_at":null,"tle_current":{"epoch":"2026-05-25T04:00:03.998880Z","epoch_age_seconds":60415,"freshness":"FRESH","line1":"1 68603U 26073B   26145.16671295 -.00020414  00000+0 -37443-3 0  9992","line2":"2 68603  97.2851 344.5986 0001253  83.5337  86.4143 15.49206396  5888","mean_motion":15.49206396,"eccentricity":0.0001253,"inclination_deg":97.2851,"raan_deg":344.5986,"arg_perigee_deg":83.5337,"mean_anomaly_deg":86.4143,"bstar":-0.00037443,"rev_number":588,"period_min":92.950816864559,"perigee_km":418.1946971242,"apogee_km":419.89807128028,"semimajor_km":6797.1833842022,"source":"CELESTRAK","updated_at":"2026-05-25T13:38:21.966145Z"}}}